Year,Month,Day,Hour,Minute,Value (Times are PST for temperature in C)
2015,07,04,00,00,18.10
2015,07,04,00,01,18.10
2015,07,04,00,02,18.10
2015,07,04,00,03,17.90
2015,07,04,00,04,17.90
2015,07,04,00,05,17.90
2015,07,04,00,06,17.80
2015,07,04,00,07,17.80
2015,07,04,00,08,17.80
2015,07,04,00,09,17.70
2015,07,04,00,10,17.70
2015,07,04,00,11,17.80
2015,07,04,00,12,17.80
2015,07,04,00,13,17.80
2015,07,04,00,14,17.90
2015,07,04,00,15,17.90
2015,07,04,00,16,17.90
2015,07,04,00,17,17.90
2015,07,04,00,18,18.00
2015,07,04,00,19,18.10
2015,07,04,00,20,18.10
2015,07,04,00,21,18.20
2015,07,04,00,22,18.20
2015,07,04,00,23,18.20
2015,07,04,00,24,18.20
2015,07,04,00,25,18.20
2015,07,04,00,26,18.20
2015,07,04,00,27,18.20
2015,07,04,00,28,18.10
2015,07,04,00,29,18.10
2015,07,04,00,30,18.10
2015,07,04,00,31,18.10
2015,07,04,00,32,18.10
2015,07,04,00,33,18.10
2015,07,04,00,34,18.10
2015,07,04,00,35,18.10
2015,07,04,00,36,18.10
2015,07,04,00,37,18.10
2015,07,04,00,38,18.00
2015,07,04,00,39,17.90
2015,07,04,00,40,17.90
2015,07,04,00,41,17.90
2015,07,04,00,42,17.90
2015,07,04,00,43,17.90
2015,07,04,00,44,17.90
2015,07,04,00,45,17.80
2015,07,04,00,46,17.80
2015,07,04,00,47,17.70
2015,07,04,00,48,17.70
2015,07,04,00,49,17.70
2015,07,04,00,50,17.60
2015,07,04,00,51,17.60
2015,07,04,00,52,17.60
2015,07,04,00,53,17.50
2015,07,04,00,54,17.40
2015,07,04,00,55,17.40
2015,07,04,00,56,17.30
2015,07,04,00,57,17.30
2015,07,04,00,58,17.20
2015,07,04,00,59,17.20
2015,07,04,01,00,17.10
2015,07,04,01,01,17.10
2015,07,04,01,02,17.10
2015,07,04,01,03,17.00
2015,07,04,01,04,17.00
2015,07,04,01,05,16.90
2015,07,04,01,06,16.80
2015,07,04,01,07,16.70
2015,07,04,01,08,16.70
2015,07,04,01,09,16.60
2015,07,04,01,10,16.50
2015,07,04,01,11,16.40
2015,07,04,01,12,16.40
2015,07,04,01,13,16.30
2015,07,04,01,14,16.30
2015,07,04,01,15,16.30
2015,07,04,01,16,16.20
2015,07,04,01,17,16.20
2015,07,04,01,18,16.20
2015,07,04,01,19,16.20
2015,07,04,01,20,16.10
2015,07,04,01,21,16.10
2015,07,04,01,22,16.10
2015,07,04,01,23,16.10
2015,07,04,01,24,16.10
2015,07,04,01,25,16.10
2015,07,04,01,26,16.10
2015,07,04,01,27,16.10
2015,07,04,01,28,16.10
2015,07,04,01,29,16.10
2015,07,04,01,30,16.10
2015,07,04,01,31,16.10
2015,07,04,01,32,16.10
2015,07,04,01,33,16.00
2015,07,04,01,34,15.90
2015,07,04,01,35,15.90
2015,07,04,01,36,15.90
2015,07,04,01,37,15.90
2015,07,04,01,38,15.90
2015,07,04,01,39,15.90
2015,07,04,01,40,15.90
2015,07,04,01,41,15.90
2015,07,04,01,42,15.90
2015,07,04,01,43,15.90
2015,07,04,01,44,15.90
2015,07,04,01,45,15.90
2015,07,04,01,46,15.90
2015,07,04,01,47,15.90
2015,07,04,01,48,15.90
2015,07,04,01,49,15.90
2015,07,04,01,50,15.90
2015,07,04,01,51,15.90
2015,07,04,01,52,15.90
2015,07,04,01,53,16.00
2015,07,04,01,54,16.10
2015,07,04,01,55,16.10
2015,07,04,01,56,16.00
2015,07,04,01,57,15.90
2015,07,04,01,58,15.90
2015,07,04,01,59,15.90
2015,07,04,02,00,15.90
2015,07,04,02,01,15.90
2015,07,04,02,02,15.90
2015,07,04,02,03,15.90
2015,07,04,02,04,15.90
2015,07,04,02,05,15.90
2015,07,04,02,06,15.90
2015,07,04,02,07,15.90
2015,07,04,02,08,15.90
2015,07,04,02,09,15.90
2015,07,04,02,10,15.90
2015,07,04,02,11,15.90
2015,07,04,02,12,15.90
2015,07,04,02,13,15.90
2015,07,04,02,14,15.90
2015,07,04,02,15,15.90
2015,07,04,02,16,15.90
2015,07,04,02,17,15.80
2015,07,04,02,18,15.80
2015,07,04,02,19,15.80
2015,07,04,02,20,15.80
2015,07,04,02,21,15.80
2015,07,04,02,22,15.80
2015,07,04,02,23,15.80
2015,07,04,02,24,15.80
2015,07,04,02,25,15.80
2015,07,04,02,26,15.80
2015,07,04,02,27,15.80
2015,07,04,02,28,15.80
2015,07,04,02,29,15.70
2015,07,04,02,30,15.70
2015,07,04,02,31,15.70
2015,07,04,02,32,15.70
2015,07,04,02,33,15.70
2015,07,04,02,34,15.60
2015,07,04,02,35,15.60
2015,07,04,02,36,15.60
2015,07,04,02,37,15.60
2015,07,04,02,38,15.60
2015,07,04,02,39,15.60
2015,07,04,02,40,15.60
2015,07,04,02,41,15.60
2015,07,04,02,42,15.60
2015,07,04,02,43,15.60
2015,07,04,02,44,15.60
2015,07,04,02,45,15.60
2015,07,04,02,46,15.70
2015,07,04,02,47,15.70
2015,07,04,02,48,15.70
2015,07,04,02,49,15.70
2015,07,04,02,50,15.70
2015,07,04,02,51,15.70
2015,07,04,02,52,15.70
2015,07,04,02,53,15.70
2015,07,04,02,54,15.70
2015,07,04,02,55,15.60
2015,07,04,02,56,15.60
2015,07,04,02,57,15.60
2015,07,04,02,58,15.50
2015,07,04,02,59,15.50
2015,07,04,03,00,15.50
2015,07,04,03,01,15.40
2015,07,04,03,02,15.40
2015,07,04,03,03,15.40
2015,07,04,03,04,15.40
2015,07,04,03,05,15.40
2015,07,04,03,06,15.40
2015,07,04,03,07,15.40
2015,07,04,03,08,15.40
2015,07,04,03,09,15.40
2015,07,04,03,10,15.40
2015,07,04,03,11,15.40
2015,07,04,03,12,15.30
2015,07,04,03,13,15.30
2015,07,04,03,14,15.30
2015,07,04,03,15,15.30
2015,07,04,03,16,15.30
2015,07,04,03,17,15.30
2015,07,04,03,18,15.30
2015,07,04,03,19,15.30
2015,07,04,03,20,15.20
2015,07,04,03,21,15.20
2015,07,04,03,22,15.20
2015,07,04,03,23,15.10
2015,07,04,03,24,15.10
2015,07,04,03,25,15.10
2015,07,04,03,26,15.10
2015,07,04,03,27,15.00
2015,07,04,03,28,15.00
2015,07,04,03,29,15.00
2015,07,04,03,30,15.00
2015,07,04,03,31,15.00
2015,07,04,03,32,15.00
2015,07,04,03,33,14.90
2015,07,04,03,34,14.90
2015,07,04,03,35,14.80
2015,07,04,03,36,14.80
2015,07,04,03,37,14.80
2015,07,04,03,38,14.80
2015,07,04,03,39,14.80
2015,07,04,03,40,14.80
2015,07,04,03,41,14.80
2015,07,04,03,42,14.80
2015,07,04,03,43,14.80
2015,07,04,03,44,14.80
2015,07,04,03,45,14.80
2015,07,04,03,46,14.80
2015,07,04,03,47,14.80
2015,07,04,03,48,14.80
2015,07,04,03,49,14.80
2015,07,04,03,50,14.80
2015,07,04,03,51,14.80
2015,07,04,03,52,14.80
2015,07,04,03,53,14.80
2015,07,04,03,54,14.80
2015,07,04,03,55,14.80
2015,07,04,03,56,14.70
2015,07,04,03,57,14.70
2015,07,04,03,58,14.60
2015,07,04,03,59,14.60
2015,07,04,04,00,14.60
2015,07,04,04,01,14.50
2015,07,04,04,02,14.50
2015,07,04,04,03,14.40
2015,07,04,04,04,14.40
2015,07,04,04,05,14.40
2015,07,04,04,06,14.40
2015,07,04,04,07,14.50
2015,07,04,04,08,14.40
2015,07,04,04,09,14.40
2015,07,04,04,10,14.40
2015,07,04,04,11,14.40
2015,07,04,04,12,14.40
2015,07,04,04,13,14.40
2015,07,04,04,14,14.40
2015,07,04,04,15,14.40
2015,07,04,04,16,14.30
2015,07,04,04,17,14.30
2015,07,04,04,18,14.30
2015,07,04,04,19,14.30
2015,07,04,04,20,14.30
2015,07,04,04,21,14.30
2015,07,04,04,22,14.30
2015,07,04,04,23,14.30
2015,07,04,04,24,14.30
2015,07,04,04,25,14.30
2015,07,04,04,26,14.30
2015,07,04,04,27,14.30
2015,07,04,04,28,14.30
2015,07,04,04,29,14.30
2015,07,04,04,30,14.30
2015,07,04,04,31,14.30
2015,07,04,04,32,14.30
2015,07,04,04,33,14.20
2015,07,04,04,34,14.20
2015,07,04,04,35,14.20
2015,07,04,04,36,14.20
2015,07,04,04,37,14.20
2015,07,04,04,38,14.20
2015,07,04,04,39,14.20
2015,07,04,04,40,14.20
2015,07,04,04,41,14.20
2015,07,04,04,42,14.20
2015,07,04,04,43,14.20
2015,07,04,04,44,14.20
2015,07,04,04,45,14.20
2015,07,04,04,46,14.20
2015,07,04,04,47,14.20
2015,07,04,04,48,14.20
2015,07,04,04,49,14.20
2015,07,04,04,50,14.20
2015,07,04,04,51,14.20
2015,07,04,04,52,14.20
2015,07,04,04,53,14.20
2015,07,04,04,54,14.20
2015,07,04,04,55,14.20
2015,07,04,04,56,14.20
2015,07,04,04,57,14.20
2015,07,04,04,58,14.20
2015,07,04,04,59,14.20
2015,07,04,05,00,14.20
2015,07,04,05,01,14.10
2015,07,04,05,02,14.10
2015,07,04,05,03,14.10
2015,07,04,05,04,14.10
2015,07,04,05,05,14.10
2015,07,04,05,06,14.10
2015,07,04,05,07,14.00
2015,07,04,05,08,14.00
2015,07,04,05,09,14.00
2015,07,04,05,10,14.00
2015,07,04,05,11,14.00
2015,07,04,05,12,13.90
2015,07,04,05,13,13.90
2015,07,04,05,14,13.90
2015,07,04,05,15,13.90
2015,07,04,05,16,13.90
2015,07,04,05,17,13.90
2015,07,04,05,18,13.90
2015,07,04,05,19,13.80
2015,07,04,05,20,13.80
2015,07,04,05,21,13.80
2015,07,04,05,22,13.80
2015,07,04,05,23,13.80
2015,07,04,05,24,13.80
2015,07,04,05,25,13.80
2015,07,04,05,26,13.80
2015,07,04,05,27,13.80
2015,07,04,05,28,13.80
2015,07,04,05,29,13.80
2015,07,04,05,30,13.80
2015,07,04,05,31,13.80
2015,07,04,05,32,13.80
2015,07,04,05,33,13.90
2015,07,04,05,34,13.90
2015,07,04,05,35,13.90
2015,07,04,05,36,13.90
2015,07,04,05,37,14.00
2015,07,04,05,38,14.00
2015,07,04,05,39,14.00
2015,07,04,05,40,14.00
2015,07,04,05,41,14.00
2015,07,04,05,42,14.00
2015,07,04,05,43,14.00
2015,07,04,05,44,14.10
2015,07,04,05,45,14.10
2015,07,04,05,46,14.10
2015,07,04,05,47,14.10
2015,07,04,05,48,14.10
2015,07,04,05,49,14.10
2015,07,04,05,50,14.00
2015,07,04,05,51,14.00
2015,07,04,05,52,14.00
2015,07,04,05,53,14.00
2015,07,04,05,54,14.00
2015,07,04,05,55,14.00
2015,07,04,05,56,14.00
2015,07,04,05,57,14.00
2015,07,04,05,58,14.00
2015,07,04,05,59,14.10
2015,07,04,06,00,14.10
2015,07,04,06,01,14.10
2015,07,04,06,02,14.10
2015,07,04,06,03,14.10
2015,07,04,06,04,14.10
2015,07,04,06,05,14.20
2015,07,04,06,06,14.20
2015,07,04,06,07,14.20
2015,07,04,06,08,14.20
2015,07,04,06,09,14.20
2015,07,04,06,10,14.20
2015,07,04,06,11,14.20
2015,07,04,06,12,14.30
2015,07,04,06,13,14.30
2015,07,04,06,14,14.40
2015,07,04,06,15,14.40
2015,07,04,06,16,14.50
2015,07,04,06,17,14.50
2015,07,04,06,18,14.50
2015,07,04,06,19,14.60
2015,07,04,06,20,14.60
2015,07,04,06,21,14.70
2015,07,04,06,22,14.80
2015,07,04,06,23,14.80
2015,07,04,06,24,14.90
2015,07,04,06,25,15.00
2015,07,04,06,26,15.10
2015,07,04,06,27,15.20
2015,07,04,06,28,15.30
2015,07,04,06,29,15.30
2015,07,04,06,30,15.40
2015,07,04,06,31,15.40
2015,07,04,06,32,15.50
2015,07,04,06,33,15.50
2015,07,04,06,34,15.60
2015,07,04,06,35,15.60
2015,07,04,06,36,15.70
2015,07,04,06,37,15.80
2015,07,04,06,38,15.80
2015,07,04,06,39,15.80
2015,07,04,06,40,15.90
2015,07,04,06,41,15.90
2015,07,04,06,42,16.10
2015,07,04,06,43,16.20
2015,07,04,06,44,16.20
2015,07,04,06,45,16.30
2015,07,04,06,46,16.30
2015,07,04,06,47,16.30
2015,07,04,06,48,16.40
2015,07,04,06,49,16.50
2015,07,04,06,50,16.60
2015,07,04,06,51,16.70
2015,07,04,06,52,16.70
2015,07,04,06,53,16.80
2015,07,04,06,54,16.90
2015,07,04,06,55,17.00
2015,07,04,06,56,17.10
2015,07,04,06,57,17.30
2015,07,04,06,58,17.40
2015,07,04,06,59,17.50
2015,07,04,07,00,17.60
2015,07,04,07,01,17.70
2015,07,04,07,02,17.70
2015,07,04,07,03,17.70
2015,07,04,07,04,17.80
2015,07,04,07,05,17.90
2015,07,04,07,06,17.90
2015,07,04,07,07,17.90
2015,07,04,07,08,18.00
2015,07,04,07,09,18.10
2015,07,04,07,10,18.20
2015,07,04,07,11,18.20
2015,07,04,07,12,18.30
2015,07,04,07,13,18.40
2015,07,04,07,14,18.40
2015,07,04,07,15,18.50
2015,07,04,07,16,18.50
2015,07,04,07,17,18.50
2015,07,04,07,18,18.50
2015,07,04,07,19,18.50
2015,07,04,07,20,18.50
2015,07,04,07,21,18.60
2015,07,04,07,22,18.60
2015,07,04,07,23,18.60
2015,07,04,07,24,18.60
2015,07,04,07,25,18.70
2015,07,04,07,26,18.70
2015,07,04,07,27,18.80
2015,07,04,07,28,18.80
2015,07,04,07,29,18.80
2015,07,04,07,30,18.80
2015,07,04,07,31,18.90
2015,07,04,07,32,18.90
2015,07,04,07,33,19.00
2015,07,04,07,34,19.10
2015,07,04,07,35,19.20
2015,07,04,07,36,19.30
2015,07,04,07,37,19.40
2015,07,04,07,38,19.50
2015,07,04,07,39,19.50
2015,07,04,07,40,19.60
2015,07,04,07,41,19.70
2015,07,04,07,42,19.80
2015,07,04,07,43,19.90
2015,07,04,07,44,19.90
2015,07,04,07,45,20.00
2015,07,04,07,46,20.10
2015,07,04,07,47,20.10
2015,07,04,07,48,20.10
2015,07,04,07,49,20.10
2015,07,04,07,50,20.10
2015,07,04,07,51,20.10
2015,07,04,07,52,20.10
2015,07,04,07,53,20.20
2015,07,04,07,54,20.20
2015,07,04,07,55,20.30
2015,07,04,07,56,20.30
2015,07,04,07,57,20.40
2015,07,04,07,58,20.50
2015,07,04,07,59,20.50
2015,07,04,08,00,20.70
2015,07,04,08,01,20.70
2015,07,04,08,02,20.70
2015,07,04,08,03,20.70
2015,07,04,08,04,20.70
2015,07,04,08,05,20.70
2015,07,04,08,06,20.70
2015,07,04,08,07,20.60
2015,07,04,08,08,20.60
2015,07,04,08,09,20.60
2015,07,04,08,10,20.70
2015,07,04,08,11,20.80
2015,07,04,08,12,20.90
2015,07,04,08,13,21.00
2015,07,04,08,14,21.10
2015,07,04,08,15,21.10
2015,07,04,08,16,21.20
2015,07,04,08,17,21.20
2015,07,04,08,18,21.20
2015,07,04,08,19,21.30
2015,07,04,08,20,21.30
2015,07,04,08,21,21.30
2015,07,04,08,22,21.40
2015,07,04,08,23,21.50
2015,07,04,08,24,21.60
2015,07,04,08,25,21.70
2015,07,04,08,26,21.80
2015,07,04,08,27,21.80
2015,07,04,08,28,21.80
2015,07,04,08,29,21.90
2015,07,04,08,30,22.00
2015,07,04,08,31,22.00
2015,07,04,08,32,22.00
2015,07,04,08,33,22.00
2015,07,04,08,34,22.00
2015,07,04,08,35,22.10
2015,07,04,08,36,22.10
2015,07,04,08,37,22.10
2015,07,04,08,38,22.20
2015,07,04,08,39,22.20
2015,07,04,08,40,22.30
2015,07,04,08,41,22.40
2015,07,04,08,42,22.40
2015,07,04,08,43,22.60
2015,07,04,08,44,22.60
2015,07,04,08,45,22.70
2015,07,04,08,46,22.60
2015,07,04,08,47,22.60
2015,07,04,08,48,22.60
2015,07,04,08,49,22.60
2015,07,04,08,50,22.50
2015,07,04,08,51,22.50
2015,07,04,08,52,22.50
2015,07,04,08,53,22.60
2015,07,04,08,54,22.80
2015,07,04,08,55,22.90
2015,07,04,08,56,22.90
2015,07,04,08,57,22.90
2015,07,04,08,58,22.90
2015,07,04,08,59,22.90
2015,07,04,09,00,22.90
2015,07,04,09,01,23.00
2015,07,04,09,02,23.10
2015,07,04,09,03,23.10
2015,07,04,09,04,23.20
2015,07,04,09,05,23.20
2015,07,04,09,06,23.20
2015,07,04,09,07,23.10
2015,07,04,09,08,23.10
2015,07,04,09,09,23.10
2015,07,04,09,10,23.00
2015,07,04,09,11,23.00
2015,07,04,09,12,23.10
2015,07,04,09,13,23.10
2015,07,04,09,14,23.30
2015,07,04,09,15,23.40
2015,07,04,09,16,23.50
2015,07,04,09,17,23.70
2015,07,04,09,18,23.70
2015,07,04,09,19,23.60
2015,07,04,09,20,23.50
2015,07,04,09,21,23.40
2015,07,04,09,22,23.30
2015,07,04,09,23,23.30
2015,07,04,09,24,23.20
2015,07,04,09,25,23.10
2015,07,04,09,26,23.00
2015,07,04,09,27,22.90
2015,07,04,09,28,22.90
2015,07,04,09,29,23.00
2015,07,04,09,30,23.00
2015,07,04,09,31,22.90
2015,07,04,09,32,22.90
2015,07,04,09,33,22.90
2015,07,04,09,34,22.90
2015,07,04,09,35,22.90
2015,07,04,09,36,22.90
2015,07,04,09,37,22.90
2015,07,04,09,38,22.90
2015,07,04,09,39,22.90
2015,07,04,09,40,22.90
2015,07,04,09,41,22.90
2015,07,04,09,42,22.80
2015,07,04,09,43,22.80
2015,07,04,09,44,22.90
2015,07,04,09,45,22.90
2015,07,04,09,46,22.90
2015,07,04,09,47,22.90
2015,07,04,09,48,22.90
2015,07,04,09,49,22.90
2015,07,04,09,50,22.90
2015,07,04,09,51,22.90
2015,07,04,09,52,23.00
2015,07,04,09,53,23.10
2015,07,04,09,54,23.20
2015,07,04,09,55,23.30
2015,07,04,09,56,23.30
2015,07,04,09,57,23.30
2015,07,04,09,58,23.30
2015,07,04,09,59,23.30
2015,07,04,10,00,23.30
2015,07,04,10,01,23.20
2015,07,04,10,02,23.10
2015,07,04,10,03,23.00
2015,07,04,10,04,22.90
2015,07,04,10,05,22.80
2015,07,04,10,06,22.70
2015,07,04,10,07,22.60
2015,07,04,10,08,22.50
2015,07,04,10,09,22.50
2015,07,04,10,10,22.40
2015,07,04,10,11,22.40
2015,07,04,10,12,22.50
2015,07,04,10,13,22.60
2015,07,04,10,14,22.70
2015,07,04,10,15,22.80
2015,07,04,10,16,22.90
2015,07,04,10,17,22.90
2015,07,04,10,18,22.90
2015,07,04,10,19,22.90
2015,07,04,10,20,23.00
2015,07,04,10,21,23.20
2015,07,04,10,22,23.30
2015,07,04,10,23,23.40
2015,07,04,10,24,23.40
2015,07,04,10,25,23.40
2015,07,04,10,26,23.50
2015,07,04,10,27,23.60
2015,07,04,10,28,23.60
2015,07,04,10,29,23.70
2015,07,04,10,30,23.70
2015,07,04,10,31,23.70
2015,07,04,10,32,23.60
2015,07,04,10,33,23.40
2015,07,04,10,34,23.40
2015,07,04,10,35,23.40
2015,07,04,10,36,23.40
2015,07,04,10,37,23.50
2015,07,04,10,38,23.70
2015,07,04,10,39,23.70
2015,07,04,10,40,23.80
2015,07,04,10,41,23.80
2015,07,04,10,42,23.70
2015,07,04,10,43,23.60
2015,07,04,10,44,23.50
2015,07,04,10,45,23.40
2015,07,04,10,46,23.30
2015,07,04,10,47,23.30
2015,07,04,10,48,23.30
2015,07,04,10,49,23.30
2015,07,04,10,50,23.30
2015,07,04,10,51,23.30
2015,07,04,10,52,23.30
2015,07,04,10,53,23.30
2015,07,04,10,54,23.40
2015,07,04,10,55,23.60
2015,07,04,10,56,23.60
2015,07,04,10,57,23.60
2015,07,04,10,58,23.50
2015,07,04,10,59,23.40
2015,07,04,11,00,23.40
2015,07,04,11,01,23.40
2015,07,04,11,02,23.40
2015,07,04,11,03,23.40
2015,07,04,11,04,23.40
2015,07,04,11,05,23.40
2015,07,04,11,06,23.30
2015,07,04,11,07,23.30
2015,07,04,11,08,23.40
2015,07,04,11,09,23.40
2015,07,04,11,10,23.30
2015,07,04,11,11,23.30
2015,07,04,11,12,23.30
2015,07,04,11,13,23.30
2015,07,04,11,14,23.30
2015,07,04,11,15,23.30
2015,07,04,11,16,23.30
2015,07,04,11,17,23.30
2015,07,04,11,18,23.40
2015,07,04,11,19,23.60
2015,07,04,11,20,23.60
2015,07,04,11,21,23.60
2015,07,04,11,22,23.60
2015,07,04,11,23,23.70
2015,07,04,11,24,23.60
2015,07,04,11,25,23.60
2015,07,04,11,26,23.60
2015,07,04,11,27,23.60
2015,07,04,11,28,23.70
2015,07,04,11,29,23.80
2015,07,04,11,30,23.80
2015,07,04,11,31,23.70
2015,07,04,11,32,23.70
2015,07,04,11,33,23.70
2015,07,04,11,34,23.70
2015,07,04,11,35,23.70
2015,07,04,11,36,23.70
2015,07,04,11,37,23.70
2015,07,04,11,38,23.70
2015,07,04,11,39,23.70
2015,07,04,11,40,23.70
2015,07,04,11,41,23.60
2015,07,04,11,42,23.60
2015,07,04,11,43,23.60
2015,07,04,11,44,23.70
2015,07,04,11,45,23.80
2015,07,04,11,46,23.80
2015,07,04,11,47,23.90
2015,07,04,11,48,23.90
2015,07,04,11,49,23.90
2015,07,04,11,50,23.90
2015,07,04,11,51,24.00
2015,07,04,11,52,24.10
2015,07,04,11,53,24.30
2015,07,04,11,54,24.30
2015,07,04,11,55,24.30
2015,07,04,11,56,24.30
2015,07,04,11,57,24.40
2015,07,04,11,58,24.40
2015,07,04,11,59,24.50
2015,07,04,12,00,24.50
2015,07,04,12,01,24.50
2015,07,04,12,02,24.50
2015,07,04,12,03,24.50
2015,07,04,12,04,24.60
2015,07,04,12,05,24.70
2015,07,04,12,06,24.80
2015,07,04,12,07,24.80
2015,07,04,12,08,24.90
2015,07,04,12,09,24.90
2015,07,04,12,10,24.90
2015,07,04,12,11,24.90
2015,07,04,12,12,25.10
2015,07,04,12,13,25.10
2015,07,04,12,14,25.20
2015,07,04,12,15,25.20
2015,07,04,12,16,25.30
2015,07,04,12,17,25.20
2015,07,04,12,18,25.20
2015,07,04,12,19,25.10
2015,07,04,12,20,25.10
2015,07,04,12,21,25.20
2015,07,04,12,22,25.20
2015,07,04,12,23,25.30
2015,07,04,12,24,25.50
2015,07,04,12,25,25.60
2015,07,04,12,26,25.50
2015,07,04,12,27,25.50
2015,07,04,12,28,25.40
2015,07,04,12,29,25.30
2015,07,04,12,30,25.40
2015,07,04,12,31,25.40
2015,07,04,12,32,25.40
2015,07,04,12,33,25.50
2015,07,04,12,34,25.60
2015,07,04,12,35,25.60
2015,07,04,12,36,25.60
2015,07,04,12,37,25.60
2015,07,04,12,38,25.70
2015,07,04,12,39,25.70
2015,07,04,12,40,25.80
2015,07,04,12,41,25.90
2015,07,04,12,42,26.00
2015,07,04,12,43,26.10
2015,07,04,12,44,26.20
2015,07,04,12,45,26.10
2015,07,04,12,46,26.10
2015,07,04,12,47,26.20
2015,07,04,12,48,26.30
2015,07,04,12,49,26.40
2015,07,04,12,50,26.40
2015,07,04,12,51,26.40
2015,07,04,12,52,26.50
2015,07,04,12,53,26.60
2015,07,04,12,54,26.70
2015,07,04,12,55,26.80
2015,07,04,12,56,26.80
2015,07,04,12,57,26.80
2015,07,04,12,58,26.80
2015,07,04,12,59,26.70
2015,07,04,13,00,26.70
2015,07,04,13,01,26.70
2015,07,04,13,02,26.70
2015,07,04,13,03,26.80
2015,07,04,13,04,26.90
2015,07,04,13,05,26.90
2015,07,04,13,06,27.00
2015,07,04,13,07,27.10
2015,07,04,13,08,27.30
2015,07,04,13,09,27.30
2015,07,04,13,10,27.50
2015,07,04,13,11,27.80
2015,07,04,13,12,27.90
2015,07,04,13,13,27.90
2015,07,04,13,14,27.90
2015,07,04,13,15,28.00
2015,07,04,13,16,28.10
2015,07,04,13,17,28.10
2015,07,04,13,18,28.10
2015,07,04,13,19,28.20
2015,07,04,13,20,28.20
2015,07,04,13,21,28.00
2015,07,04,13,22,28.00
2015,07,04,13,23,27.90
2015,07,04,13,24,27.90
2015,07,04,13,25,27.80
2015,07,04,13,26,27.80
2015,07,04,13,27,27.70
2015,07,04,13,28,27.80
2015,07,04,13,29,27.80
2015,07,04,13,30,27.80
2015,07,04,13,31,27.70
2015,07,04,13,32,27.80
2015,07,04,13,33,27.80
2015,07,04,13,34,27.80
2015,07,04,13,35,27.90
2015,07,04,13,36,27.90
2015,07,04,13,37,27.90
2015,07,04,13,38,27.80
2015,07,04,13,39,27.70
2015,07,04,13,40,27.70
2015,07,04,13,41,27.80
2015,07,04,13,42,27.90
2015,07,04,13,43,27.90
2015,07,04,13,44,27.90
2015,07,04,13,45,27.90
2015,07,04,13,46,28.00
2015,07,04,13,47,28.00
2015,07,04,13,48,28.00
2015,07,04,13,49,28.00
2015,07,04,13,50,28.00
2015,07,04,13,51,28.00
2015,07,04,13,52,28.00
2015,07,04,13,53,28.00
2015,07,04,13,54,28.10
2015,07,04,13,55,28.10
2015,07,04,13,56,28.00
2015,07,04,13,57,27.80
2015,07,04,13,58,27.80
2015,07,04,13,59,27.80
2015,07,04,14,00,27.70
2015,07,04,14,01,27.70
2015,07,04,14,02,27.60
2015,07,04,14,03,27.40
2015,07,04,14,04,27.20
2015,07,04,14,05,27.20
2015,07,04,14,06,27.00
2015,07,04,14,07,26.80
2015,07,04,14,08,26.70
2015,07,04,14,09,26.60
2015,07,04,14,10,26.40
2015,07,04,14,11,26.30
2015,07,04,14,12,26.00
2015,07,04,14,13,26.00
2015,07,04,14,14,26.00
2015,07,04,14,15,26.00
2015,07,04,14,16,25.90
2015,07,04,14,17,25.90
2015,07,04,14,18,25.90
2015,07,04,14,19,25.90
2015,07,04,14,20,25.90
2015,07,04,14,21,25.90
2015,07,04,14,22,25.70
2015,07,04,14,23,25.60
2015,07,04,14,24,25.60
2015,07,04,14,25,25.60
2015,07,04,14,26,25.70
2015,07,04,14,27,25.80
2015,07,04,14,28,25.90
2015,07,04,14,29,25.90
2015,07,04,14,30,25.80
2015,07,04,14,31,25.80
2015,07,04,14,32,25.70
2015,07,04,14,33,25.80
2015,07,04,14,34,25.90
2015,07,04,14,35,25.90
2015,07,04,14,36,25.90
2015,07,04,14,37,26.00
2015,07,04,14,38,26.20
2015,07,04,14,39,26.20
2015,07,04,14,40,26.20
2015,07,04,14,41,26.20
2015,07,04,14,42,26.10
2015,07,04,14,43,26.00
2015,07,04,14,44,26.00
2015,07,04,14,45,26.00
2015,07,04,14,46,26.00
2015,07,04,14,47,26.00
2015,07,04,14,48,26.00
2015,07,04,14,49,26.00
2015,07,04,14,50,26.00
2015,07,04,14,51,26.00
2015,07,04,14,52,26.00
2015,07,04,14,53,25.90
2015,07,04,14,54,26.00
2015,07,04,14,55,26.00
2015,07,04,14,56,26.00
2015,07,04,14,57,26.00
2015,07,04,14,58,25.90
2015,07,04,14,59,25.90
2015,07,04,15,00,25.90
2015,07,04,15,01,25.80
2015,07,04,15,02,25.90
2015,07,04,15,03,26.00
2015,07,04,15,04,26.10
2015,07,04,15,05,26.10
2015,07,04,15,06,26.10
2015,07,04,15,07,26.10
2015,07,04,15,08,26.10
2015,07,04,15,09,26.10
2015,07,04,15,10,26.10
2015,07,04,15,11,26.20
2015,07,04,15,12,26.30
2015,07,04,15,13,26.30
2015,07,04,15,14,26.40
2015,07,04,15,15,26.40
2015,07,04,15,16,26.40
2015,07,04,15,17,26.40
2015,07,04,15,18,26.20
2015,07,04,15,19,26.10
2015,07,04,15,20,26.10
2015,07,04,15,21,26.00
2015,07,04,15,22,25.90
2015,07,04,15,23,25.90
2015,07,04,15,24,25.70
2015,07,04,15,25,25.70
2015,07,04,15,26,25.70
2015,07,04,15,27,25.60
2015,07,04,15,28,25.60
2015,07,04,15,29,25.60
2015,07,04,15,30,25.60
2015,07,04,15,31,25.60
2015,07,04,15,32,25.60
2015,07,04,15,33,25.60
2015,07,04,15,34,25.60
2015,07,04,15,35,25.60
2015,07,04,15,36,25.50
2015,07,04,15,37,25.60
2015,07,04,15,38,25.60
2015,07,04,15,39,25.50
2015,07,04,15,40,25.40
2015,07,04,15,41,25.50
2015,07,04,15,42,25.60
2015,07,04,15,43,25.70
2015,07,04,15,44,25.60
2015,07,04,15,45,25.60
2015,07,04,15,46,25.70
2015,07,04,15,47,25.80
2015,07,04,15,48,25.80
2015,07,04,15,49,25.80
2015,07,04,15,50,25.80
2015,07,04,15,51,25.80
2015,07,04,15,52,25.70
2015,07,04,15,53,25.70
2015,07,04,15,54,25.60
2015,07,04,15,55,25.70
2015,07,04,15,56,25.80
2015,07,04,15,57,25.70
2015,07,04,15,58,25.80
2015,07,04,15,59,25.80
2015,07,04,16,00,25.80
2015,07,04,16,01,25.70
2015,07,04,16,02,25.60
2015,07,04,16,03,25.50
2015,07,04,16,04,25.50
2015,07,04,16,05,25.50
2015,07,04,16,06,25.50
2015,07,04,16,07,25.60
2015,07,04,16,08,25.70
2015,07,04,16,09,25.70
2015,07,04,16,10,25.60
2015,07,04,16,11,25.70
2015,07,04,16,12,25.70
2015,07,04,16,13,25.70
2015,07,04,16,14,25.70
2015,07,04,16,15,25.70
2015,07,04,16,16,25.70
2015,07,04,16,17,25.70
2015,07,04,16,18,25.70
2015,07,04,16,19,25.70
2015,07,04,16,20,25.80
2015,07,04,16,21,25.90
2015,07,04,16,22,25.80
2015,07,04,16,23,25.80
2015,07,04,16,24,25.70
2015,07,04,16,25,25.70
2015,07,04,16,26,25.80
2015,07,04,16,27,25.90
2015,07,04,16,28,25.90
2015,07,04,16,29,25.90
2015,07,04,16,30,26.00
2015,07,04,16,31,26.10
2015,07,04,16,32,26.20
2015,07,04,16,33,26.20
2015,07,04,16,34,26.20
2015,07,04,16,35,26.20
2015,07,04,16,36,26.20
2015,07,04,16,37,26.20
2015,07,04,16,38,26.20
2015,07,04,16,39,26.20
2015,07,04,16,40,26.30
2015,07,04,16,41,26.20
2015,07,04,16,42,26.10
2015,07,04,16,43,26.00
2015,07,04,16,44,26.00
2015,07,04,16,45,26.20
2015,07,04,16,46,26.30
2015,07,04,16,47,26.40
2015,07,04,16,48,26.50
2015,07,04,16,49,26.60
2015,07,04,16,50,26.60
2015,07,04,16,51,26.60
2015,07,04,16,52,26.60
2015,07,04,16,53,26.60
2015,07,04,16,54,26.50
2015,07,04,16,55,26.40
2015,07,04,16,56,26.40
2015,07,04,16,57,26.30
2015,07,04,16,58,26.20
2015,07,04,16,59,26.20
2015,07,04,17,00,26.20
2015,07,04,17,01,26.10
2015,07,04,17,02,26.10
2015,07,04,17,03,26.20
2015,07,04,17,04,26.20
2015,07,04,17,05,26.30
2015,07,04,17,06,26.30
2015,07,04,17,07,26.30
2015,07,04,17,08,26.20
2015,07,04,17,09,26.20
2015,07,04,17,10,26.10
2015,07,04,17,11,26.00
2015,07,04,17,12,25.90
2015,07,04,17,13,25.90
2015,07,04,17,14,25.90
2015,07,04,17,15,25.80
2015,07,04,17,16,25.80
2015,07,04,17,17,25.80
2015,07,04,17,18,25.80
2015,07,04,17,19,25.90